DMSP 5D-3 F16 (USA 172)

导读

DMSP 5D-3 F16(USA 172)是美国国防部气象卫星计划(DMSP)的第七代极轨气象卫星,于2003年10月18日在范登堡空军基地发射。卫星由洛克希德·马丁公司建造,运行于近太阳同步轨道,质量约1200千克,设计寿命5年,实际已在轨服役超22年。它主要承担全球云图监测、强风暴预报、海况观测等任务,搭载的微光传感器可捕捉夜间灯光数据,同时为美军军事行动提供气象支撑,是美国重要的天基气象情报来源。

基本信息
目录编号:
28054
目录名称:
DMSP 5D-3 F16 (USA 172)
国际标识:
2003-048A
轨道中心:
EARTH
卫星名称:
DMSP 5D-3 F16 (USA 172)
卫星全名:
--
卫星状态:
在轨 (已飞行8367 天)
发射日期:
2003-10-18 UTC
国别 :
美国 (US)
星等 :
--
该卫星已列入 空间交会检测服务 Space Conjunction Data Service (SCDS) ,当前飞行风险评估等级: 无高风险
轨道信息
数据来源 国际轨道数据 AOE轨道数据
星历时间 2026-09-14T06:28:16+0800
7小时前
查看轨道信息
2026-09-12T22:00:00+0800
1天前
查看轨道信息
半长轴 7222.184km 7222.186km
偏心率 0.0005996 0.0006319
轨道倾角 98.987° 98.988°
近地点辐角 253.336° 260.030°
升交点赤经 281.341° 279.981°
平近点角 155.262° 102.885°
近地点 839.716km 839.485km
远地点 848.378km 848.613km
周期 101.803分钟 101.803分钟
每日圈数 14.144904 14.144897
详细信息
使用方式:
暂无
2D轨道图
3D轨道图
轨道高度分析图
轨道倾角分析图
轨道综合分析图
查看轨道综合分析图
交会数据列表
事件ID 空间交会对象 最接近时刻(TCA) 交会距离 交会风险概率(CRP) 交会风险指数(CRI) 操作
CDM_260916-062202-805403-000423
2026-09-16T
06:22:28+0000
2.306 km
极远距离
2.039173E-6 低风险 0.41
CDM_260914-222300-756002-805426
2026-09-14T
22:23:06+0000
2.443 km
极远距离
1.832498E-6 低风险 0.4
与全量物体交会距离演化趋势 订阅飞行安全评估服务
与全量物体交会风险概率演化趋势 订阅飞行安全评估服务